Terminal Aerodrome Forecast
Issued by NWS

Home | Current Version | Previous Version | Text Only | Print | Product List | Glossary On
Versions: 1 2 3 4 5 6 7 8 9 10 11 12 13 14 15 16 17 18 19 20 21 22 23 24
000
FTAK31 PAFA 050538
TAFASC
TAF
PASC 050538Z 0506/0606 08008KT P6SM BKN110
     FM051200 08008KT P6SM FEW110
     FM052100 07014KT P6SM SCT200=

USA.gov is the U.S. government's official web portal to all federal, state and local government web resources and services.